Probability
0 0 0 0 0 0 0 0 0 0 0 0 0 0 0 0 0 0 0 0 0 0 0 0 0 0 0 0 1 2 2 4 4 3 1 0 0 0 0 0 0 0 0 0
0 0 0 0 0 0 0 0 0 0 0 0 0 0 0 0 0 0 0 0 0 0 0 0 0 0 0 0 0 1 1 3 4 2 0 0 0 0 0 0 0 0 0 0
0 0 0 0 0 0 0 0 0 0 0 0 0 0 0 0 0 0 0 0 0 0 0 0 0 0 0 0 0 0 0 1 3 2 0 0 0 0 0 0 0 0 0 0
0 0 0 0 0 0 0 0 0 0 0 0 0 0 0 0 0 0 0 0 0 0 0 0 0 0 0 0 0 0 0 1 3 3 1 0 0 0 0 0 0 0 0 0
0 0 0 0 0 0 0 0 0 0 0 0 0 0 0 0 0 0 0 0 0 0 0 0 0 0 0 0 0 0 0 1 2 2 1 0 0 0 0 0 0 0 0 0
0 0 0 0 0 0 0 0 0 0 0 0 0 0 0 0 0 0 0 0 0 0 0 0 0 0 0 0 0 0 0 0 1 1 0 0 0 0 0 0 0 0 0 0
0 0 0 0 0 0 0 0 0 0 0 0 0 0 0 0 0 0 0 0 0 0 0 0 0 0 0 0 0 0 0 0 0 0 0 0 0 0 0 0 0 0 0 0
0 0 0 0 0 0 0 0 0 0 0 0 0 0 0 0 0 0 0 0 0 0 0 0 0 0 0 0 0 0 0 0 0 0 0 0 0 0 0 0 0 0 0 0
0 0 0 0 0 0 0 0 0 0 0 0 0 0 0 0 0 0 0 0 0 0 0 0 0 0 0 0 0 0 0 0 0 0 0 0 0 0 0 0 0 0 0 0
0 0 0 0 0 0 0 0 0 0 0 0 0 0 0 0 0 0 0 0 0 0 0 0 0 0 0 0 0 0 0 0 0 0 0 0 0 0 0 0 0 0 0 0
0 0 0 0 0 0 0 0 0 0 0 0 0 0 0 0 0 0 0 0 0 0 0 0 0 0 0 0 0 0 0 0 0 0 0 0 0 0 0 0 0 0 0 0
0 0 0 0 0 0 0 0 0 0 0 0 0 0 0 0 0 0 0 0 0 0 0 0 0 0 0 0 0 0 0 0 0 0 0 0 0 0 0 0 0 0 0 0
0 0 0 0 0 0 0 0 0 0 0 0 0 0 0 0 0 0 0 0 0 0 0 0 0 0 0 0 0 0 0 0 0 0 0 0 0 0 0 0 0 0 0 0
0 0 0 0 0 0 0 0 0 0 0 0 0 0 0 0 0 0 0 0 0 0 0 0 0 0 0 0 0 0 0 0 0 0 0 0 0 0 0 0 0 0 0 0
0 0 0 0 0 0 0 0 0 0 0 0 0 0 0 0 0 0 0 0 0 0 0 0 0 0 0 0 0 0 0 0 0 0 0 0 0 0 0 0 0 0 0 0
0 0 0 0 0 0 0 0 0 0 0 0 0 0 0 0 0 0 0 0 0 0 0 0 0 0 0 0 0 0 0 0 0 0 0 0 0 0 0 0 0 0 0 0
0 0 0 0 0 0 0 0 0 0 0 0 0 0 0 0 0 0 0 0 0 0 0 0 0 0 0 0 0 0 0 0 0 0 0 0 0 0 0 0 0 0 0 0
0 0 0 0 0 0 0 0 0 0 0 0 0 0 0 0 0 0 0 0 0 0 0 0 0 0 0 0 0 0 0 0 0 0 0 0 0 0 0 0 0 0 0 0
0 0 0 0 0 0 0 0 0 0 0 0 0 0 0 0 0 0 0 0 0 0 0 0 0 0 0 0 0 0 0 0 0 0 0 0 0 0 0 0 0 0 0 0
0 0 0 0 0 0 0 0 0 0 0 0 0 0 0 0 0 0 0 0 0 0 0 0 0 0 0 0 0 0 0 0 0 0 0 0 0 0 0 0 0 0 0 0
0 0 0 0 0 0 0 0 0 0 0 0 0 0 0 0 0 0 0 0 0 0 0 0 0 0 0 0 0 0 0 0 0 0 0 0 0 0 0 0 0 0 0 0
0 0 0 0 0 0 0 0 0 0 0 0 0 0 0 0 0 0 0 0 0 0 0 0 0 0 0 0 0 0 0 0 0 0 0 0 0 0 0 0 0 0 0 0
0 0 0 0 0 0 0 0 0 0 0 0 0 0 0 0 0 0 0 0 0 0 0 0 0 0 0 0 0 0 0 0 0 0 0 0 0 0 0 0 0 0 0 0
0 0 0 0 0 0 0 0 0 0 0 0 0 0 0 0 0 0 0 0 0 0 0 0 0 0 0 0 0 0 0 0 0 0 0 0 0 0 0 0 0 0 0 0
0 0 0 0 0 0 0 0 0 0 0 0 0 0 0 0 0 0 0 0 0 0 0 0 0 0 0 0 0 0 0 0 0 0 0 0 0 0 0 0 0 0 0 0
0 0 0 0 0 0 0 0 0 0 0 0 0 0 0 0 0 0 0 0 0 0 0 0 0 0 0 0 0 0 0 0 0 0 0 0 0 0 0 0 0 0 0 0
Wind_Speed
8 9 13 16 19 17 15 16 17 16 14 16 18 19 17 15 13 13 13 13 13 14 14 13 14 14 14 14 16 17 16 15 12 11 10 9 8 7 6 6 8 9 8 8
9 16 17 15 16 18 18 18 18 14 13 12 14 17 15 14 15 13 12 12 13 12 13 14 14 14 15 16 16 17 18 16 15 12 10 8 7 6 5 5 7 9 9 9
15 13 13 15 17 18 19 18 17 14 10 11 10 15 17 15 15 14 14 13 12 12 13 13 14 14 14 15 17 17 18 17 16 13 9 7 7 5 6 7 7 8 9 9
13 16 15 16 17 17 17 16 16 14 10 8 9 9 14 15 16 17 16 14 13 12 12 12 13 14 15 14 15 16 17 17 16 15 13 14 12 10 10 9 7 8 9 9
10 11 14 17 18 16 12 10 12 12 10 10 10 10 9 14 18 19 17 16 15 13 12 12 13 14 14 14 14 14 16 16 16 16 15 15 11 8 6 7 9 9 8 9
14 12 11 13 13 12 9 7 7 8 6 13 16 13 9 12 18 17 18 17 16 14 13 12 11 12 12 13 13 13 15 15 16 17 16 16 14 12 11 11 11 10 7 8
10 13 11 7 7 8 8 6 5 6 8 11 12 13 11 10 13 14 14 14 14 13 12 11 11 11 12 14 14 14 15 15 16 17 17 17 15 14 14 13 12 10 8 8
5 8 8 7 8 6 9 10 7 6 7 7 10 13 9 11 9 9 10 10 11 12 12 11 11 11 11 14 15 15 16 15 16 17 16 15 14 11 9 11 10 11 9 9
4 6 5 7 6 8 9 11 7 5 5 6 7 8 9 9 9 8 8 9 10 10 10 10 10 10 11 12 14 15 15 14 14 15 15 14 14 12 10 10 9 9 7 8
3 7 7 6 5 9 9 7 5 6 5 6 7 11 8 11 11 10 10 9 9 8 8 9 9 10 10 11 11 12 13 13 13 14 13 11 13 12 10 9 10 10 9 9
4 5 5 5 7 8 7 7 5 5 6 5 5 6 7 9 12 12 11 10 10 9 9 8 8 8 9 9 10 11 12 11 12 13 12 11 11 11 10 9 9 9 9 10
4 3 5 7 6 6 5 6 6 5 5 6 5 6 4 2 5 7 9 8 8 8 8 8 8 8 8 9 10 10 11 11 11 11 11 11 11 11 10 9 9 9 9 9
4 3 4 3 4 4 4 5 7 6 4 5 6 7 4 4 3 1 4 5 6 7 7 7 8 8 9 8 9 9 10 11 10 11 11 11 11 11 11 10 9 9 9 9
5 5 6 6 4 4 7 9 9 8 6 7 10 10 7 5 3 3 1 4 6 7 7 8 7 7 8 8 8 9 9 10 11 11 11 12 12 11 10 10 9 9 9 10
3 6 8 11 12 11 11 12 13 13 11 10 11 11 11 8 6 4 2 4 6 7 8 8 8 7 8 8 8 8 9 10 11 11 11 11 10 10 10 10 9 9 9 9
2 6 8 10 11 12 13 13 14 16 15 16 16 15 8 7 4 3 1 4 5 6 7 8 8 8 9 9 9 9 9 9 10 11 11 10 11 11 10 10 10 10 9 9
4 4 5 7 8 9 11 12 14 14 13 13 15 12 7 7 4 2 1 1 2 4 5 7 7 8 8 9 9 10 10 9 10 10 11 11 11 11 11 11 11 10 9 9
7 5 4 5 5 9 7 6 9 12 11 10 10 8 6 6 4 1 0 0 1 2 3 5 6 7 6 6 8 8 9 10 10 11 11 11 11 12 11 11 11 9 8 9
12 7 4 4 5 9 7 6 7 8 9 6 7 7 7 7 4 3 2 1 2 2 3 4 5 7 7 8 9 10 10 10 11 11 12 12 12 13 12 12 11 9 9 8
10 8 5 4 5 6 3 3 2 4 6 2 4 5 5 4 3 4 4 3 2 1 1 3 5 7 8 8 9 11 11 11 11 12 12 12 12 13 12 12 10 9 9 8
6 7 9 8 7 8 6 5 1 3 3 3 3 4 5 3 5 6 5 3 2 1 1 3 5 6 8 9 10 10 10 11 11 11 11 12 12 12 12 11 10 10 10 10
6 6 7 7 9 9 4 2 1 2 2 3 3 4 6 7 7 6 5 3 2 2 1 2 4 5 7 9 10 10 10 10 11 12 12 12 12 11 11 12 11 11 11 11
7 7 4 6 7 6 4 3 3 2 3 4 4 5 5 7 8 7 6 4 3 2 2 2 3 5 6 9 10 11 9 11 13 13 13 12 12 10 11 12 13 11 10 9
5 6 6 7 8 8 8 6 4 4 5 5 5 6 6 7 7 7 6 5 4 2 2 1 3 5 6 7 8 9 10 11 14 14 13 12 12 11 10 9 9 9 9 9
7 5 7 10 10 10 9 7 6 6 6 6 6 6 6 7 7 7 6 5 4 3 2 2 4 5 6 7 8 9 11 13 14 14 13 12 11 12 10 8 6 7 6 9
9 10 10 11 9 9 9 8 8 9 8 7 7 8 7 7 8 7 7 6 5 4 3 3 3 4 6 7 9 10 11 13 15 14 13 11 10 10 10 10 10 12 10 14
Wind_Direction
221 224 222 217 221 233 239 241 244 243 233 226 233 236 233 230 225 220 219 215 211 204 196 192 185 177 173 170 169 170 173 175 170 173 176 178 180 175 173 169 169 170 171 168
242 237 237 236 235 237 242 245 250 257 247 235 239 244 240 231 226 222 224 221 214 208 195 191 184 177 175 173 173 172 175 177 177 178 179 177 170 171 170 167 172 174 174 172
239 248 237 235 238 237 240 240 245 251 264 262 260 252 241 234 232 226 224 224 219 211 200 191 185 179 176 176 176 177 178 179 180 173 168 164 161 166 175 181 183 182 177 175
253 252 245 239 237 235 241 241 250 251 249 247 233 255 238 226 227 225 222 221 220 218 208 195 186 181 179 179 177 177 177 177 178 173 176 176 179 183 187 181 179 179 180 178
248 249 243 240 240 236 245 246 252 255 252 255 239 249 247 221 223 221 217 215 215 215 209 199 190 182 179 175 174 175 174 176 177 178 180 181 185 184 171 170 175 182 186 185
259 264 255 247 244 244 246 242 257 261 253 245 232 233 252 221 220 215 214 212 209 208 207 202 190 179 176 172 171 173 175 177 177 180 182 185 186 180 175 177 180 183 184 187
262 254 251 248 241 241 226 194 202 201 215 237 220 225 240 229 222 212 206 206 204 202 199 194 187 179 174 171 172 174 177 179 179 181 185 188 189 186 185 181 181 180 182 187
254 254 225 223 225 220 222 200 207 203 207 229 210 227 235 227 230 211 201 200 198 197 195 191 186 180 173 172 173 176 179 180 180 182 186 187 186 188 189 183 179 182 184 185
271 261 239 235 233 210 211 214 232 270 269 256 225 235 237 225 221 208 200 198 196 195 189 184 178 175 171 171 175 177 179 180 180 182 182 183 184 184 186 182 175 178 176 175
273 280 267 239 236 223 227 214 206 215 222 234 236 230 226 200 206 207 202 198 195 191 186 179 174 174 172 172 173 174 177 180 178 178 180 182 182 183 181 178 178 173 170 166
272 263 265 233 213 215 204 204 208 212 233 231 244 243 218 202 198 200 200 198 190 186 182 176 168 166 163 161 166 170 174 172 173 175 175 174 177 177 176 178 176 169 166 164
264 265 262 252 238 214 217 204 199 212 234 240 254 266 300 276 214 199 191 191 185 179 173 166 158 152 152 158 163 166 169 170 172 171 168 171 169 170 173 175 170 164 163 163
301 266 273 259 215 206 225 218 222 241 258 244 240 257 306 331 334 280 180 172 166 161 158 151 149 155 156 159 161 163 166 166 165 163 163 165 167 169 172 170 165 160 158 155
303 255 244 254 275 254 243 238 232 227 234 248 246 263 287 301 304 304 184 158 152 153 150 148 152 157 157 156 157 160 162 159 159 160 162 166 168 168 165 161 157 155 152 150
302 269 266 272 272 262 250 242 234 230 232 244 259 271 275 288 290 276 183 160 151 150 154 156 159 158 157 155 155 155 158 157 157 157 160 162 158 154 152 151 151 146 144 144
266 277 288 274 263 260 257 247 241 237 234 243 261 266 271 284 307 326 158 148 148 152 162 163 162 158 160 159 156 154 154 155 155 154 155 150 148 149 149 147 143 139 138 138
248 260 284 276 283 280 250 230 230 232 231 232 244 257 286 293 302 305 9 103 150 155 162 166 166 161 163 162 156 157 154 148 149 149 147 147 146 146 146 143 142 142 142 139
233 242 259 273 280 244 247 229 231 237 240 238 249 276 280 281 272 262 35 130 186 171 177 173 166 158 154 152 149 146 146 148 148 148 149 148 146 144 143 144 144 142 140 142
215 219 237 252 257 270 270 255 240 240 239 248 257 277 293 297 273 269 319 295 229 212 205 182 164 155 151 154 152 146 147 149 150 153 155 153 150 147 147 147 147 143 139 137
200 204 224 241 252 251 274 303 275 267 246 285 280 291 303 311 259 267 314 314 306 276 197 162 148 149 153 157 152 151 154 156 159 158 155 152 149 149 148 147 142 138 136 134
189 203 219 234 249 266 286 302 322 217 258 337 317 312 310 281 269 291 306 309 288 275 211 150 147 155 161 158 156 158 160 165 158 148 145 147 147 146 143 139 138 136 132 128
211 212 214 218 233 250 306 307 220 271 320 341 337 325 314 300 298 305 309 312 305 280 199 161 157 160 161 159 160 163 167 158 146 143 143 145 145 142 140 137 135 135 134 132
223 218 220 222 239 282 306 308 310 334 326 331 323 309 307 307 306 310 310 304 298 268 225 187 175 168 169 167 165 167 163 150 145 143 144 143 140 138 140 140 140 139 139 138
255 244 247 257 260 277 287 290 287 299 297 305 309 304 300 292 297 305 303 298 297 279 262 215 175 173 177 171 167 163 155 151 147 146 145 143 141 138 135 136 140 143 146 143
258 268 264 264 270 281 273 279 284 288 289 294 295 294 293 291 290 291 291 286 281 277 255 215 200 192 183 171 162 156 154 151 148 146 145 143 140 137 131 121 121 133 140 151
242 247 252 259 270 277 286 295 296 293 288 289 294 296 290 279 280 280 278 276 270 261 241 224 223 205 180 166 160 158 157 155 151 148 148 146 141 135 130 121 99 81 105 118